When you browse on this site, cookies collect data to enhance your experience and personalize the content and advertising you see.
Visit our Privacy Policy to learn more. By continuing to use the site, you agree to this use of cookies and data.
  • In Romania
  • List of Countries
  • For 7 days
  • Water Temperature
  • Weather Map
  • Weather Widgets
  • user-avatar
    Login

    Hourly Weather Porto Velho

    Today, 13 November, Wednesday

    Time Temperature Precipitation Wind Pressure Humidity
    00:00 +24°C° 0.2 mm 0 mps 748 mmHg 89%
    01:00 +23°C° 0.2 mm 0 mps 748 mmHg 91%
    02:00 +23°C° 0.2 mm 0 mps 748 mmHg 92%
    03:00 +23°C° 0.4 mm 0 mps 748 mmHg 93%
    04:00 +23°C° 0.4 mm 0 mps 748 mmHg 94%
    05:00 +23°C° 0.4 mm 0 mps 748 mmHg 95%
    06:00 +24°C° 0.4 mm 0 mps 749 mmHg 91%
    07:00 +25°C° 0.4 mm 0 mps 750 mmHg 86%
    08:00 +26°C° 0.4 mm 0 mps 750 mmHg 82%
    09:00 +31°C° 0.3 mm 1 mps 750 mmHg 72%
    10:00 +33°C° 0.3 mm 1 mps 750 mmHg 63%
    11:00 +35°C° 0.3 mm 1 mps 750 mmHg 54%
    12:00 +35°C° 0.5 mm 1 mps 749 mmHg 52%
    13:00 +36°C° 0.5 mm 1 mps 748 mmHg 51%
    14:00 +36°C° 0.5 mm 1 mps 747 mmHg 49%
    15:00 +34°C° 0.9 mm 1 mps 746 mmHg 58%
    16:00 +32°C° 0.9 mm 1 mps 746 mmHg 67%
    17:00 +30°C° 0.9 mm 1 mps 745 mmHg 75%
    18:00 +29°C° 1.2 mm 1 mps 746 mmHg 81%
    19:00 +28°C° 1.2 mm 1 mps 746 mmHg 87%
    20:00 +25°C° 1.2 mm 0 mps 747 mmHg 93%
    21:00 +24°C° 0.4 mm 0 mps 747 mmHg 94%
    22:00 +26°C° 0.4 mm 1 mps 748 mmHg 94%
    23:00 +26°C° 0.4 mm 1 mps 748 mmHg 95%

    Tomorrow, 14 November, Thursday

    Time Temperature Precipitation Wind Pressure Humidity
    00:00 +24°C° 0.1 mm 0 mps 748 mmHg 95%
    01:00 +23°C° 0.1 mm 0 mps 747 mmHg 95%
    02:00 +23°C° 0.1 mm 0 mps 747 mmHg 96%
    03:00 +23°C° 0 mm 0 mps 747 mmHg 96%
    04:00 +23°C° 0 mm 0 mps 747 mmHg 96%
    05:00 +23°C° 0 mm 0 mps 747 mmHg 96%
    06:00 +24°C° 0 mm 0 mps 748 mmHg 94%
    07:00 +24°C° 0 mm 0 mps 749 mmHg 92%
    08:00 +25°C° 0 mm 0 mps 749 mmHg 91%
    09:00 +27°C° 0 mm 0 mps 749 mmHg 81%
    10:00 +31°C° 0 mm 1 mps 749 mmHg 72%
    11:00 +33°C° 0 mm 1 mps 749 mmHg 63%
    12:00 +34°C° 0.1 mm 1 mps 748 mmHg 57%
    13:00 +36°C° 0.1 mm 1 mps 747 mmHg 50%
    14:00 +37°C° 0.1 mm 1 mps 746 mmHg 43%
    15:00 +36°C° 0.1 mm 1 mps 746 mmHg 49%
    16:00 +34°C° 0.1 mm 1 mps 745 mmHg 55%
    17:00 +33°C° 0.1 mm 1 mps 745 mmHg 61%
    18:00 +31°C° 0.8 mm 1 mps 745 mmHg 71%
    19:00 +29°C° 0.8 mm 1 mps 746 mmHg 80%
    20:00 +27°C° 0.8 mm 1 mps 746 mmHg 89%
    21:00 +26°C° 1.2 mm 1 mps 747 mmHg 92%
    22:00 +26°C° 1.2 mm 1 mps 748 mmHg 94%
    23:00 +26°C° 1.2 mm 1 mps 748 mmHg 97%

    Day after tomorrow, 15 November, Friday

    Time Temperature Precipitation Wind Pressure Humidity
    00:00 +26°C° 0.3 mm 1 mps 748 mmHg 97%
    01:00 +26°C° 0.3 mm 1 mps 748 mmHg 97%
    02:00 +26°C° 0.3 mm 1 mps 747 mmHg 96%
    03:00 +24°C° 0.1 mm 0 mps 747 mmHg 97%
    04:00 +24°C° 0.1 mm 0 mps 748 mmHg 97%
    05:00 +23°C° 0.1 mm 0 mps 748 mmHg 97%
    06:00 +24°C° 0.7 mm 0 mps 749 mmHg 96%
    07:00 +25°C° 0.7 mm 0 mps 749 mmHg 94%
    08:00 +25°C° 0.7 mm 0 mps 750 mmHg 92%
    09:00 +25°C° 2.9 mm 0 mps 750 mmHg 93%
    10:00 +27°C° 2.9 mm 1 mps 750 mmHg 94%
    11:00 +27°C° 2.9 mm 1 mps 750 mmHg 95%
    12:00 +27°C° 2.9 mm 1 mps 749 mmHg 95%
    13:00 +27°C° 2.9 mm 1 mps 748 mmHg 95%
    14:00 +27°C° 2.9 mm 1 mps 747 mmHg 94%
    15:00 +26°C° 1.7 mm 1 mps 747 mmHg 95%
    16:00 +26°C° 1.7 mm 1 mps 747 mmHg 96%
    17:00 +26°C° 1.7 mm 1 mps 747 mmHg 97%
    18:00 +25°C° 0.5 mm 1 mps 748 mmHg 98%
    19:00 +25°C° 0.5 mm 1 mps 748 mmHg 98%
    20:00 +23°C° 0.5 mm 0 mps 749 mmHg 99%
    21:00 +23°C° 0 mm 0 mps 749 mmHg 99%
    22:00 +23°C° 0 mm 0 mps 749 mmHg 98%
    23:00 +23°C° 0 mm 0 mps 749 mmHg 98%

    16 November, Saturday

    Time Temperature Precipitation Wind Pressure Humidity
    00:00 +23°C° 0.1 mm 0 mps 749 mmHg 98%
    01:00 +23°C° 0.1 mm 0 mps 748 mmHg 98%
    02:00 +23°C° 0.1 mm 0 mps 748 mmHg 99%
    03:00 +23°C° 0.1 mm 0 mps 748 mmHg 99%
    04:00 +23°C° 0.1 mm 0 mps 748 mmHg 99%
    05:00 +23°C° 0.1 mm 0 mps 748 mmHg 99%
    06:00 +23°C° 0 mm 0 mps 748 mmHg 98%
    07:00 +23°C° 0 mm 0 mps 749 mmHg 98%
    08:00 +25°C° 0 mm 1 mps 749 mmHg 97%
    09:00 +27°C° 0.1 mm 1 mps 749 mmHg 88%
    10:00 +29°C° 0.1 mm 1 mps 749 mmHg 79%
    11:00 +31°C° 0.1 mm 1 mps 749 mmHg 70%
    12:00 +30°C° 1.4 mm 1 mps 748 mmHg 78%
    13:00 +29°C° 1.4 mm 1 mps 747 mmHg 85%
    14:00 +27°C° 1.4 mm 1 mps 746 mmHg 93%
    15:00 +28°C° 1.6 mm 1 mps 746 mmHg 93%
    16:00 +28°C° 1.6 mm 1 mps 746 mmHg 93%
    17:00 +28°C° 1.6 mm 1 mps 745 mmHg 93%
    18:00 +27°C° 0.3 mm 1 mps 746 mmHg 95%
    19:00 +24°C° 0.3 mm 0 mps 747 mmHg 96%
    20:00 +24°C° 0.3 mm 0 mps 747 mmHg 97%
    21:00 +23°C° 0 mm 0 mps 747 mmHg 97%
    22:00 +23°C° 0 mm 0 mps 748 mmHg 98%
    23:00 +23°C° 0 mm 0 mps 748 mmHg 98%

    17 November, Sunday

    Time Temperature Precipitation Wind Pressure Humidity
    00:00 +23°C° 0 mm 0 mps 748 mmHg 99%
    01:00 +23°C° 0 mm 0 mps 747 mmHg 99%
    02:00 +22°C° 0 mm 0 mps 747 mmHg 99%
    03:00 +22°C° 0 mm 0 mps 747 mmHg 99%
    04:00 +22°C° 0 mm 0 mps 747 mmHg 99%
    05:00 +22°C° 0 mm 0 mps 747 mmHg 99%
    06:00 +23°C° 0 mm 0 mps 748 mmHg 98%
    07:00 +23°C° 0 mm 0 mps 748 mmHg 97%
    08:00 +23°C° 0 mm 0 mps 749 mmHg 96%
    09:00 +25°C° 0 mm 0 mps 749 mmHg 87%
    10:00 +27°C° 0 mm 0 mps 749 mmHg 77%
    11:00 +29°C° 0 mm 0 mps 748 mmHg 68%
    12:00 +30°C° 0 mm 0 mps 747 mmHg 64%
    13:00 +33°C° 0 mm 1 mps 746 mmHg 60%
    14:00 +34°C° 0 mm 1 mps 745 mmHg 56%
    15:00 +33°C° 0.3 mm 1 mps 745 mmHg 61%
    16:00 +32°C° 0.3 mm 1 mps 744 mmHg 67%
    17:00 +31°C° 0.3 mm 1 mps 744 mmHg 73%
    18:00 +27°C° 0.1 mm 0 mps 745 mmHg 77%
    19:00 +26°C° 0.1 mm 0 mps 745 mmHg 81%
    20:00 +25°C° 0.1 mm 0 mps 746 mmHg 86%
    21:00 +24°C° 0.1 mm 0 mps 746 mmHg 87%
    22:00 +24°C° 0.1 mm 0 mps 747 mmHg 89%
    23:00 +24°C° 0.1 mm 0 mps 747 mmHg 90%

    18 November, Monday

    Time Temperature Precipitation Wind Pressure Humidity
    00:00 +23°C° 0.8 mm 0 mps 747 mmHg 92%
    01:00 +23°C° 0.8 mm 0 mps 747 mmHg 94%
    02:00 +23°C° 0.8 mm 0 mps 746 mmHg 96%
    03:00 +22°C° 1.6 mm 0 mps 747 mmHg 96%
    04:00 +22°C° 1.6 mm 0 mps 747 mmHg 97%
    05:00 +22°C° 1.6 mm 0 mps 747 mmHg 98%
    06:00 +23°C° 1 mm 0 mps 748 mmHg 97%
    07:00 +23°C° 1 mm 0 mps 748 mmHg 96%
    08:00 +24°C° 1 mm 0 mps 749 mmHg 95%
    09:00 +24°C° 0.3 mm 0 mps 749 mmHg 95%
    10:00 +26°C° 0.3 mm 1 mps 749 mmHg 94%
    11:00 +26°C° 0.3 mm 1 mps 749 mmHg 93%
    12:00 +29°C° 0.1 mm 1 mps 748 mmHg 80%
    13:00 +32°C° 0.1 mm 1 mps 747 mmHg 67%
    14:00 +34°C° 0.1 mm 1 mps 746 mmHg 55%
    15:00 +34°C° 0 mm 1 mps 746 mmHg 56%
    16:00 +34°C° 0 mm 1 mps 746 mmHg 57%
    17:00 +33°C° 0 mm 1 mps 745 mmHg 58%
    18:00 +29°C° 0.7 mm 0 mps 746 mmHg 69%
    19:00 +26°C° 0.7 mm 0 mps 746 mmHg 80%
    20:00 +24°C° 0.7 mm 0 mps 747 mmHg 92%
    21:00 +24°C° 0.7 mm 0 mps 747 mmHg 93%
    22:00 +24°C° 0.7 mm 0 mps 748 mmHg 94%
    23:00 +23°C° 0.7 mm 0 mps 748 mmHg 96%
    Show more